Location: Caualo
(45.5667°N, 10.8667°E)
Time: 17:25:11
(UTC+00:00)

Cosmos 1400 Rocket - Pass Details

Date: 07 June 2020
Orbit: 522 x 568 km, 81.2° (Epoch: 04 July)

Event Time Altitude Azimuth Distance (km) Brightness Sun altitude
Rises 00:01:43 0° 355° (N) 2,779 7.8 -20.8°
Reaches altitude 10° 00:04:01 10° 2° (N) 1,877 6.7 -20.8°
Maximum altitude 00:07:58 43° 75° (ENE) 809 3.8 -20.6°
Enters shadow 00:09:30 30° 124° (SE) 1,039 4.0 -20.6°
